Home > Weather > Cincinnati > Past weeks

Flag for U.S.A. Weather for the Past 2 Weeks in Cincinnati, Ohio, U.S.A.

Now
17 °F

Overcast.


Feels Like: 8 °F
Forecast: 8 / 24 °F
Wind: 7 mph from Northwest

Location: Cincinnati Municipal Airport Lunken Field

Current Time: Feb 10, 2016 at 9:59:23 PM

Latest Report: Feb 10, 2016 at 8:53 PM


Visibility: 10 mi

Pressure: 30.18 "Hg

Humidity: 62%

Dew point: 6 °F

Location of CincinnatiLocation

Historic Weather in Cincinnati — Graph

°F

Cincinnati Temperature Yesterday

Maximum temperature yesterday: 25 °F (at 2:53 PM)
Minimum temperature yesterday: 18 °F (at 11:53 PM)
Average temperature yesterday: 23 °F

High & Low Weather Summary for the Past Weeks

 TemperatureHumidityPressure
High64 °F (Jan 30, 2:53 PM)100% (Feb 2, 2:53 AM)30.49 "Hg (Feb 2, 2:53 AM)
Low16 °F (Feb 10, 7:53 AM)31% (Feb 7, 1:53 PM)29.59 "Hg (Feb 3, 12:53 AM)
Average37 °F71%30.01 "Hg
* Reported Jan 26 7:53 PM — Feb 10 7:53 PM, Cincinnati, Weather by CustomWeather, © 2016

Note: Actual official high and low records may vary slightly from our data, if they occured in-between our weather recording intervals... More about our weather records

Advertising

Cincinnati Weather History for the Previous 24 Hours

 ConditionsComfort  
Time TempWeatherWind HumidityBarometerVisibility
7:53 PM
Wed, Feb 10
19 °FLight snow. Overcast.9 mph62%30.15 "Hg6 mi
6:53 PM18 °FOvercast.6 mph62%30.14 "Hg10 mi
5:53 PM18 °FOvercast.13 mph59%30.12 "Hg10 mi
4:53 PM18 °FMostly cloudy.13 mph62%30.11 "Hg10 mi
3:53 PM18 °FLight snow. Mostly cloudy.14 mph71%30.09 "Hg5 mi
2:53 PM18 °FLight snow. Mostly cloudy.12 mph65%30.08 "Hg8 mi
1:53 PM18 °FLight snow. More clouds than sun.13 mph71%30.08 "Hg8 mi
12:53 PM18 °FOvercast.15 mph65%30.09 "Hg9 mi
11:53 AM18 °FLight snow. Mostly cloudy.14 mph71%30.09 "Hg4 mi
10:53 AM17 °FLight snow. Mostly cloudy.13 mph70%30.08 "Hg5 mi
9:53 AM16 °FLight snow. Mostly cloudy.15 mph71%30.06 "Hg4 mi
8:53 AM16 °FLight snow. Cloudy.16 mph74%30.05 "Hg6 mi
7:53 AM16 °FLight snow. Mostly cloudy.15 mph77%30.03 "Hg5 mi
6:53 AM17 °FLight snow. Mostly cloudy.10 mph80%30.02 "Hg2 mi
5:53 AM17 °FMostly cloudy.16 mph70%30.01 "Hg9 mi
4:53 AM17 °FOvercast.14 mph74%29.99 "Hg9 mi
3:53 AM17 °FMostly cloudy.12 mph74%29.99 "Hg10 mi
3:03 AM17 °FLight snow. Mostly cloudy.10 mph83%29.96 "Hg7 mi
2:53 AM17 °FMostly cloudy.13 mph80%29.98 "Hg9 mi
1:53 AM17 °FOvercast.12 mph68%29.98 "Hg10 mi
12:53 AM18 °FOvercast.13 mph71%29.99 "Hg10 mi
11:53 PM
Tue, Feb 9
18 °FPassing clouds.14 mph71%29.99 "Hg10 mi
11:00 PM20 °FMostly cloudy.14 mph71%29.97 "Hg10 mi
9:53 PM21 °FMostly cloudy.18 mph74%29.96 "Hg10 mi
Weather by CustomWeather, © 2016

See weather overviewHow to use our weather pages